Regional Weather Roundup
Issued by NWS Jackson, KY

Home | Current Version | Previous Version | Graphics & Text | Print | Product List | Glossary On
Versions: 1 2 3 4 5 6 7 8 9 10 11 12 13 14 15 16 17 18 19 20 21 22 23 24 25 26 27 28 29 30 31 32 33 34 35 36 37 38 39 40 41 42 43 44 45 46 47 48 49 50
000
ASUS43 KJKL 200905
RWRJKL

EAST KENTUCKY HOURLY WEATHER ROUNDUP
NATIONAL WEATHER SERVICE JACKSON KY
500 AM EDT WED AUG 20 2014

NOTE: "FAIR" INDICATES FEW OR NO CLOUDS BELOW 12,000 FEET WITH
NO SIGNIFICANT WEATHER AND/OR OBSTRUCTIONS TO VISIBILITY.

* THESE REPORTS ARE NOT UNDER NWS QUALITY CONTROL AND MAY NOT
  REPORT WEATHER SUCH AS PRECIPITATION AND FOG.

KYZ079-080-083-085-087-088-110-112-115-119-120-201000
...EASTERN KENTUCKY...

CITY           SKY/WX    TMP DP  RH WIND       PRES   REMARKS
JACKSON        MOCLDY    70  68  93 VRB5      29.95R
LONDON         MOCLDY    72  68  87 CALM      29.94S
SOMERSET*      MOCLDY    70  70 100 CALM      29.93S FOG
MONTICELLO*    CLOUDY    70  70 100 CALM      29.94R FOG
WILLIAMSBURG*  MOCLDY    68  68 100 CALM      29.94
MIDDLESBORO*   FOG       66  66 100 CALM      29.96S VSB 1/2
HARLAN APT*    CLOUDY    68  66  94 MISG      29.97S VSB<1/4
BLACK MTN*       N/A     64  64 100 SW5         N/A
PIKEVILLE APT* FOG       68  68 100 CALM      29.95R VSB 1/2
BIG SANDY*     CLOUDY    71  69  95 CALM      29.94R
MOREHEAD APT*  CLOUDY    68  64  88 E7        29.93F
$$

KYZ035-036-041-042-044-050-067-078-099-201000
...CENTRAL KENTUCKY...

CITY           SKY/WX    TMP DP  RH WIND       PRES   REMARKS
MT STERLING*   MOCLDY    66  66 100 E3        29.93F
FLEMING/MASON* CLOUDY    65  65  98 SE5       29.90F
DANVILLE*      MOCLDY    68  64  88 S3        29.92S
RICHMOND*      CLOUDY    72  66  83 N7        29.92R
LEXINGTON      MOCLDY    71  64  78 S7        29.91F
FRANKFORT      MOCLDY    69  66  90 NE3       29.89F
$$

KYZ091>093-OHZ055-061-077-WVZ005-015-034-035-042-201000
...SOUTHERN OHIO/WEST VIRGINIA...

CITY           SKY/WX    TMP DP  RH WIND       PRES   REMARKS
COVINGTON      MOCLDY    65  62  90 S6        29.88R
COLUMBUS       RAIN      75  70  84 W8        29.86R
DAYTON         CLOUDY    69  64  84 S7        29.88R
WILMINGTON     CLOUDY    65  63  93 VRB3      29.87F
HUNTINGTON     TSTM      67  66  97 W12G24    29.96R VSB 1
CHARLESTON     MOCLDY    69  69 100 SW5       29.92R FOG
PINEVILLE*     FOG       69  69 100 MISG      30.03R VSB 1/2
BECKLEY        PTCLDY    63  61  93 CALM      30.00S FOG
BLUEFIELD      CLEAR     67  63  87 W5        30.04R
$$

VAZ002-007-008-TNZ017-027-036-066-071-201000
...SOUTHWEST VIRGINIA/EAST TENNESSEE...

CITY           SKY/WX    TMP DP  RH WIND       PRES   REMARKS
WISE*          MOCLDY    66  66 100 SW9       30.04S FOG
JONESVILLE*    FOG       66  66 100 CALM      29.99S VSB 1/4
ABINGDON*      MOCLDY    68  68 100 CALM      30.02R FOG
BRISTOL        PTCLDY    67  64  90 CALM      29.99R FOG
KNOXVILLE      MOCLDY    71  69  93 CALM      29.95R
OAK RIDGE      MOCLDY    71  69  93 CALM      29.96S
CROSSVILLE     CLEAR     71  67  87 CALM      30.00R FOG
NASHVILLE      MOCLDY    77  73  87 CALM      29.91R
$$

...KEY TO REMARKS...
VSB - VISIBILITY IN MILES
WCI - WIND CHILL INDEX
HX  - HEAT INDEX

$$


USA.gov is the U.S. government's official web portal to all federal, state and local government web resources and services.